Regional Weather Roundup
Issued by NWS

Home | Current Version | Previous Version | Text Only | Print | Product List | Glossary On
Versions: 1 2 3 4 5 6 7 8 9 10 11 12 13 14 15 16 17 18 19 20 21 22 23 24 25 26 27 28 29 30 31 32 33 34 35 36 37 38 39 40 41 42 43 44 45 46 47 48 49 50
000
ASUS42 KKEY 070610
RWRKEY

FLORIDA REGIONAL WEATHER ROUNDUP FOR THE FLORIDA KEYS
NATIONAL WEATHER SERVICE KEY WEST FLORIDA
100 AM EST SUN FEB 07 2016

...SOUTH FLORIDA AND THE KEYS...

CITY           SKY/WX    TMP DP  RH WIND       PRES   REMARKS
FORT MYERS     CLOUDY    54  51  90 NW12      30.04F
SW REGIONAL AP CLOUDY    55  49  80 NW10      30.04F
NAPLES         CLOUDY    57  52  83 NW10G20   30.04F
MIAMI          CLOUDY    59  57  93 NW9       29.98S
WEST KENDALL   CLOUDY    60  58  92 NW12      29.99F
HOMESTEAD      CLOUDY    61  59  95 W9        29.98F
MARATHON       CLOUDY    64  59  83 NW12G21   30.02F
BOCA CHICA NAS CLOUDY    65  59  81 NW17      30.03F
KEY WEST INTL  LGT RAIN  65  61  87 NW14      30.04S

...INTERNATIONAL WEATHER...

CITY           SKY/WX    TMP DP  RH WIND       PRES   REMARKS
NASSAU BAHAMAS PTCLDY    73  68  83 SE3       29.96F
CANCUN MEXICO  CLOUDY    66  64  94 NW5       30.15F
COZUMEL MEXICO MOCLDY    64  63  94 NW16      30.16S

ADJACENT COASTAL WATERS...

STATION/POSITION TIME  SKY/WX   TEMP    WIND        PRES    WAVE
                                AIR SEA DIR/SP/G            HT/PER
                 (UTC)          (F)     (DEG/KT/KT) (MB)    (FT/S)
PULASKI SHOAL LI 0500                                 N/A
SAND KEY         0550            66     340/ 17/ 20 1017.6S
SOMBRERO KEY     NOT AVBL
LONG KEY         0500            64 70  340/ 15/ 17 1017.1F
MOLASSES REEF    0600            64 77  310/ 16/ 18 1015.4F
FOWEY ROCKS      NOT AVBL

$$



USA.gov is the U.S. government's official web portal to all federal, state and local government web resources and services.